Weather History for Shreveport Downtown, LA

Change the Weather History Date:

Sunday, July 21, 2013

  Actual Average (KSHV) Record (KSHV)
Temperature  
Mean Temperature 82 °F 83 °F  
Max Temperature 93 °F 94 °F 103 °F (1939)
Min Temperature 73 °F 73 °F 64 °F (1984)
Degree Days  
Heating Degree Days 0 0  
Month to date heating degree days 0  
Since 1 June heating degree days 0  
Since 1 July heating degree days 0  
Cooling Degree Days 17 18  
Month to date cooling degree days 373  
Year to date cooling degree days 1215  
Since 1 June cooling degree days 817  
Growing Degree Days 32 (Base 50)    
Moisture  
Dew Point 71 °F    
Average Humidity 71    
Maximum Humidity 93    
Minimum Humidity 45    
Precipitation  
Precipitation 0.00 in 0.09 in 2.72 in (1972)
Month to date precipitation 2.58  
Year to date precipitation 30.19  
Snow  
Snow 0.00 in - - ()
Month to date snowfall  
Since 1 June snowfall  
Since 1 July snowfall  
Snow Depth -    
Sea Level Pressure  
Sea Level Pressure 29.93 in    
Wind  
Wind Speed 6 mph (South)    
Max Wind Speed 14 mph    
Max Gust Speed 22 mph    
Visibility 10 miles    
Events Rain    
T = Trace of Precipitation, MM = Missing Value Source: NWS Daily Summary

Daily Weather History Graph

Daily Weather History Graph

Search for Another Location

Airport:

Trip Planner

Search our weather history database for the weather conditions in past years. The results will help you decide how hot, cold, wet, or windy it might be!

Date:

Astronomy

Jul. 21, 2013 Rise Set
Actual Time 6:22 AM CDT 8:20 PM CDT
Civil Twilight 5:54 AM CDT 8:47 PM CDT
Nautical Twilight 5:21 AM CDT 9:21 PM CDT
Astronomical Twilight 4:45 AM CDT 9:56 PM CDT
Moon 7:21 PM CDT (7/21) 5:07 AM CDT (7/21)
Length of Visible Light 14h 53m
Length of Day
13h 58m
Waxing Gibbous, 98% of the Moon is Illuminated
Jul 21
Waxing Gibbous
Jul 22
Full
Jul 29
Last Quarter
Aug 6
New
Aug 14
First Quarter

Hourly Weather History & Observations

Time (CDT) Temp. Heat Index Dew Point Humidity Pressure Visibility Wind Dir Wind Speed Gust Speed Precip Events Conditions
12:53 AM 77.0 °F - 70.0 °F 79% 29.94 in 10.0 mi South 5.8 mph - N/A   Clear
1:53 AM 75.0 °F - 70.0 °F 84% 29.94 in 10.0 mi SSE 4.6 mph - N/A   Clear
2:53 AM 75.9 °F - 70.0 °F 82% 29.94 in 10.0 mi South 5.8 mph - N/A   Clear
3:53 AM 75.0 °F - 69.1 °F 82% 29.94 in 10.0 mi South 4.6 mph - N/A   Clear
4:53 AM 75.0 °F - 70.0 °F 84% 29.94 in 10.0 mi Calm Calm - N/A   Clear
5:53 AM 73.0 °F - 70.0 °F 90% 29.95 in 10.0 mi SSE 5.8 mph - N/A   Clear
6:53 AM 73.0 °F - 71.1 °F 93% 29.96 in 8.0 mi ESE 3.5 mph - N/A   Clear
7:53 AM 75.9 °F - 72.0 °F 87% 29.97 in 10.0 mi SSE 6.9 mph - N/A   Clear
8:53 AM 80.1 °F 83.8 °F 72.0 °F 76% 29.98 in 10.0 mi South 6.9 mph - N/A   Scattered Clouds
9:04 AM 80.6 °F 84.6 °F 71.6 °F 74% 29.98 in 10.0 mi South 5.8 mph - N/A   Mostly Cloudy
9:53 AM 82.9 °F 88.8 °F 73.0 °F 72% 29.97 in 10.0 mi SSW 5.8 mph - N/A   Mostly Cloudy
10:33 AM 84.2 °F 89.6 °F 71.6 °F 66% 29.97 in 10.0 mi SW 9.2 mph - N/A   Scattered Clouds
10:53 AM 84.9 °F 90.1 °F 71.1 °F 63% 29.97 in 10.0 mi WSW 10.4 mph - N/A   Scattered Clouds
11:53 AM 89.1 °F 95.0 °F 71.1 °F 55% 29.96 in 10.0 mi SW 11.5 mph 20.7 mph N/A   Mostly Cloudy
12:53 PM 87.1 °F 92.0 °F 70.0 °F 57% 29.95 in 10.0 mi SW 5.8 mph - N/A   Scattered Clouds
1:53 PM 90.0 °F 94.5 °F 69.1 °F 50% 29.93 in 10.0 mi SW 4.6 mph - N/A   Partly Cloudy
2:53 PM 91.0 °F 95.2 °F 68.0 °F 47% 29.91 in 10.0 mi SW 5.8 mph - N/A   Mostly Cloudy
3:53 PM 91.0 °F 97.6 °F 71.1 °F 52% 29.88 in 10.0 mi WNW 6.9 mph - 0.00 in Rain Light Rain
4:53 PM 91.9 °F 95.9 °F 68.0 °F 45% 29.88 in 10.0 mi SW 8.1 mph - 0.00 in   Partly Cloudy
5:53 PM 87.1 °F 92.0 °F 70.0 °F 57% 29.89 in 10.0 mi East 10.4 mph - N/A   Overcast
6:22 PM 84.2 °F 89.6 °F 71.6 °F 66% 29.91 in 10.0 mi SSE 10.4 mph 21.9 mph N/A   Overcast
6:53 PM 84.0 °F 88.4 °F 70.0 °F 63% 29.91 in 10.0 mi SSE 13.8 mph 20.7 mph N/A   Mostly Cloudy
7:53 PM 82.0 °F 86.3 °F 71.1 °F 69% 29.90 in 10.0 mi South 5.8 mph - N/A   Clear
8:53 PM 82.0 °F 86.7 °F 72.0 °F 71% 29.89 in 10.0 mi South 11.5 mph - N/A   Clear
9:53 PM 80.1 °F 83.8 °F 72.0 °F 76% 29.91 in 10.0 mi South 9.2 mph - N/A   Clear
10:53 PM 78.1 °F - 73.0 °F 84% 29.93 in 10.0 mi South 8.1 mph - N/A   Clear
11:53 PM 78.1 °F - 73.0 °F 84% 29.94 in 10.0 mi South 9.2 mph - N/A   Clear